FW2402 Weather Reports


time (UTC)temp
C
wind
direction
speed
KPH
gust
KPH
rain 1hr
cm
rain 24hr
cm
rain mn
cm
humidity
%
barometer
mb
20260831185525 32 275 3.2 8.0 0.00 0.10 0.00 70 1015.3
20260831185025 31 0 0.0 8.0 0.00 0.10 0.00 72 1015.3
20260831184543 32 319 0.0 8.0 0.00 0.10 0.00 70 1015.5
20260831184020 32 301 0.0 4.8 0.00 0.10 0.00 72 1015.4
20260831183523 30 0 0.0 9.7 0.00 0.10 0.00 73 1015.5
20260831183041 31 0 0.0 9.7 0.00 0.10 0.00 73 1015.5
20260831182520 32 32 4.8 9.7 0.00 0.10 0.00 66 1015.6
20260831182021 32 294 1.6 6.4 0.00 0.10 0.00 68 1015.7
20260831181540 31 0 0.0 6.4 0.00 0.10 0.00 69 1015.8
20260831181025 32 123 1.6 6.4 0.00 0.10 0.00 71 1015.9
20260831180525 32 0 1.6 6.4 0.00 0.10 0.00 67 1016.0
20260831180050 31 270 1.6 6.4 0.00 0.10 0.00 71 1016.0
20260831175524 31 140 1.6 11.3 0.00 0.10 0.00 74 1016.0
20260831175024 31 281 6.4 11.3 0.00 0.10 0.00 67 1016.1
20260831174546 31 226 1.6 12.9 0.00 0.10 0.00 68 1016.2
20260831174022 32 39 4.8 12.9 0.00 0.10 0.00 70 1016.3
20260831173521 31 261 1.6 6.4 0.00 0.10 0.00 71 1016.3
20260831173041 31 302 0.0 6.4 0.00 0.10 0.00 73 1016.4
20260831172525 32 0 1.6 6.4 0.00 0.10 0.00 67 1016.6
20260831172025 32 55 0.0 8.0 0.00 0.10 0.00 70 1016.5
20260831171552 31 300 1.6 8.0 0.00 0.10 0.00 67 1016.5
20260831171025 31 0 1.6 11.3 0.00 0.10 0.00 70 1016.7
20260831170524 30 274 3.2 11.3 0.00 0.10 0.00 72 1016.8
20260831170043 31 281 1.6 8.0 0.00 0.10 0.00 73 1016.9
20260831165523 31 53 3.2 9.7 0.00 0.10 0.00 73 1017.0
20260831165023 30 72 4.8 9.7 0.00 0.10 0.00 73 1017.1
20260831164555 30 69 0.0 6.4 0.00 0.10 0.00 79 1017.2
20260831164024 29 294 3.2 4.8 0.00 0.10 0.00 75 1017.2
20260831163526 29 0 0.0 4.8 0.00 0.10 0.00 75 1017.2
20260831163052 31 0 0.0 4.8 0.00 0.10 0.00 72 1017.2
20260831162525 31 0 0.0 4.8 0.00 0.10 0.00 79 1017.4
20260831162026 30 0 0.0 4.8 0.00 0.10 0.00 75 1017.4
20260831161545 30 0 0.0 6.4 0.00 0.10 0.00 76 1017.4
20260831161023 30 0 1.6 9.7 0.00 0.10 0.00 75 1017.4
20260831160527 30 0 1.6 11.3 0.00 0.10 0.00 76 1017.5
20260831160047 30 63 4.8 11.3 0.00 0.10 0.00 74 1017.5
20260831155525 30 61 0.0 11.3 0.00 0.10 0.00 76 1017.4
20260831155026 30 93 4.8 11.3 0.00 0.10 0.00 75 1017.4
20260831154608 30 84 1.6 11.3 0.00 0.10 0.00 78 1017.5
20260831154028 28 275 3.2 4.8 0.00 0.10 0.00 79 1017.5
20260831153525 28 255 0.0 6.4 0.00 0.10 0.00 81 1017.6
20260831153049 29 0 0.0 6.4 0.00 0.10 0.00 77 1017.6
20260831152523 30 46 3.2 6.4 0.00 0.10 0.00 77 1017.6
20260831152023 30 108 1.6 6.4 0.00 0.10 0.00 78 1017.5
20260831151548 30 63 3.2 8.0 0.00 0.10 0.00 77 1017.6
20260831151025 30 42 3.2 8.0 0.00 0.10 0.00 79 1017.6
20260831150526 30 24 1.6 6.4 0.00 0.10 0.00 77 1017.5
20260831150050 29 105 0.0 9.7 0.00 0.10 0.00 80 1017.4
20260831145526 29 54 3.2 9.7 0.00 0.10 0.00 79 1017.5
20260831145025 29 45 1.6 8.0 0.00 0.10 0.00 81 1017.4
20260831144559 28 190 1.6 8.0 0.00 0.10 0.00 79 1017.4
20260831144024 28 144 3.2 6.4 0.00 0.10 0.00 82 1017.3
20260831143524 28 284 0.0 8.0 0.00 0.10 0.00 80 1017.3
20260831143050 28 61 3.2 8.0 0.00 0.10 0.00 81 1017.3
20260831142524 28 26 1.6 6.4 0.00 0.10 0.00 84 1017.2
20260831142028 28 49 1.6 4.8 0.00 0.10 0.00 82 1017.1
20260831141555 28 122 1.6 3.2 0.00 0.10 0.00 84 1017.2
20260831141024 28 142 0.0 4.8 0.00 0.10 0.00 84 1017.2
20260831140528 28 0 0.0 4.8 0.00 0.10 0.00 85 1017.3
20260831140048 27 69 0.0 4.8 0.00 0.10 0.00 85 1017.2
20260831135525 27 321 0.0 3.2 0.00 0.10 0.00 86 1017.2
20260831135028 27 0 0.0 4.8 0.00 0.10 0.00 88 1017.2
20260831134545 27 136 0.0 4.8 0.00 0.10 0.00 89 1017.2
20260831134022 27 0 0.0 3.2 0.00 0.10 0.00 89 1017.1
20260831133527 27 0 0.0 4.8 0.00 0.10 0.00 90 1017.1
20260831133042 26 145 0.0 4.8 0.00 0.10 0.00 91 1017.1
20260831132522 26 151 1.6 4.8 0.00 0.10 0.00 92 1017.1
20260831132026 26 70 1.6 4.8 0.00 0.10 0.00 95 1017.1
20260831131540 26 84 1.6 3.2 0.00 0.10 0.00 96 1017.1
20260831131026 26 85 0.0 3.2 0.00 0.10 0.00 97 1017.2
20260831130524 25 0 0.0 4.8 0.00 0.10 0.00 97 1017.2
20260831130050 25 0 1.6 4.8 0.00 0.10 0.00 97 1017.3
20260831125523 25 286 0.0 4.8 0.00 0.10 0.00 97 1017.2
20260831125018 25 0 0.0 4.8 0.00 0.10 0.00 97 1017.1
20260831124540 25 45 0.0 3.2 0.00 0.10 0.00 97 1017.0
20260831124020 25 0 0.0 0.0 0.00 0.10 0.00 97 1017.0
20260831123524 25 0 0.0 0.0 0.00 0.10 0.00 97 1017.0
20260831123050 25 0 0.0 0.0 0.00 0.10 0.00 97 1016.8
20260831122525 24 0 0.0 0.0 0.00 0.10 0.00 97 1016.7
20260831122024 24 0 0.0 0.0 0.00 0.10 0.00 97 1016.7
20260831121544 23 0 0.0 0.0 0.00 0.10 0.00 97 1016.6
20260831121022 23 0 0.0 0.0 0.00 0.10 0.00 97 1016.6
20260831120525 23 0 0.0 0.0 0.00 0.10 0.00 97 1016.7
20260831120043 23 0 0.0 0.0 0.00 0.10 0.00 97 1016.6
20260831115519 23 0 0.0 0.0 0.00 0.10 0.00 97 1016.5
20260831115024 23 0 0.0 0.0 0.00 0.10 0.00 97 1016.4
20260831114550 22 0 0.0 0.0 0.00 0.10 0.00 97 1016.3
20260831114025 22 0 0.0 0.0 0.00 0.10 0.00 97 1016.3
20260831113527 22 0 0.0 0.0 0.00 0.10 0.00 97 1016.3
20260831113046 22 0 0.0 0.0 0.00 0.10 0.00 97 1016.3
20260831112524 22 0 0.0 0.0 0.00 0.10 0.00 97 1016.3
20260831112021 22 0 0.0 0.0 0.00 0.10 0.00 97 1016.2
20260831111552 22 0 0.0 0.0 0.00 0.10 0.00 97 1016.2
20260831111020 22 0 0.0 0.0 0.00 0.10 0.00 97 1016.1
20260831110521 22 0 0.0 0.0 0.00 0.10 0.00 97 1016.1
20260831110047 22 0 0.0 0.0 0.00 0.10 0.00 97 1016.0
20260831105525 22 0 0.0 0.0 0.00 0.10 0.00 97 1016.0
20260831105023 22 0 0.0 0.0 0.00 0.10 0.00 97 1016.0
20260831104555 22 0 0.0 0.0 0.00 0.10 0.00 97 1015.9
20260831104019 22 0 0.0 0.0 0.00 0.10 0.00 97 1015.9
20260831103521 22 0 0.0 0.0 0.00 0.10 0.00 97 1015.7
20260831103041 22 0 0.0 0.0 0.00 0.10 0.00 97 1015.7
20260831102524 22 0 0.0 0.0 0.00 0.10 0.00 97 1015.6
20260831102025 22 0 0.0 0.0 0.00 0.10 0.00 97 1015.6
20260831101548 22 0 0.0 0.0 0.00 0.10 0.00 97 1015.5
20260831101025 22 0 0.0 0.0 0.00 0.10 0.00 97 1015.4
20260831100526 22 0 0.0 0.0 0.00 0.10 0.00 97 1015.4
20260831100047 22 0 0.0 0.0 0.00 0.10 0.00 97 1015.4
20260831095523 22 0 0.0 0.0 0.00 0.10 0.00 97 1015.4
20260831095023 22 0 0.0 0.0 0.00 0.10 0.00 97 1015.3
20260831094541 22 0 0.0 0.0 0.00 0.10 0.00 97 1015.3
20260831094020 22 0 0.0 0.0 0.00 0.10 0.00 97 1015.4
20260831093520 22 0 0.0 0.0 0.00 0.10 0.00 97 1015.4
20260831093049 22 0 0.0 0.0 0.00 0.10 0.00 97 1015.4
20260831092524 22 0 0.0 0.0 0.00 0.10 0.00 97 1015.3
20260831092025 22 0 0.0 0.0 0.00 0.10 0.00 97 1015.4
20260831091541 22 0 0.0 0.0 0.00 0.10 0.00 97 1015.4
20260831091020 22 0 0.0 0.0 0.00 0.10 0.00 96 1015.4
20260831090523 22 0 0.0 0.0 0.00 0.10 0.00 97 1015.3
20260831090043 22 0 0.0 0.0 0.00 0.10 0.00 97 1015.2
20260831085521 22 0 0.0 0.0 0.00 0.10 0.00 96 1015.2
20260831085020 22 0 0.0 0.0 0.00 0.10 0.00 96 1015.2
20260831084542 22 0 0.0 0.0 0.00 0.10 0.00 97 1015.2
20260831084026 22 0 0.0 0.0 0.00 0.10 0.00 96 1015.3
20260831083526 22 0 0.0 0.0 0.00 0.10 0.00 96 1015.3
20260831083045 22 0 0.0 0.0 0.00 0.10 0.00 97 1015.3
20260831082523 22 0 0.0 0.0 0.00 0.10 0.00 96 1015.3
20260831082023 22 0 0.0 0.0 0.00 0.10 0.00 96 1015.2
20260831081541 22 0 0.0 0.0 0.00 0.10 0.00 97 1015.3
20260831081017 22 0 0.0 0.0 0.00 0.10 0.00 97 1015.3
20260831080521 22 0 0.0 0.0 0.00 0.10 0.00 97 1015.3
20260831080051 22 0 0.0 0.0 0.00 0.10 0.00 96 1015.3
20260831075525 22 0 0.0 0.0 0.00 0.10 0.00 96 1015.3
20260831075026 22 0 0.0 0.0 0.00 0.10 0.00 96 1015.3
20260831074550 22 0 0.0 0.0 0.00 0.10 0.00 96 1015.4
20260831074023 22 0 0.0 0.0 0.00 0.10 0.00 96 1015.3
20260831073524 22 0 0.0 0.0 0.00 0.10 0.00 96 1015.5
20260831073046 22 0 0.0 0.0 0.00 0.10 0.00 96 1015.5
20260831072526 22 0 0.0 0.0 0.00 0.10 0.00 96 1015.5
20260831072019 22 0 0.0 0.0 0.00 0.10 0.00 96 1015.6
20260831071542 22 0 0.0 0.0 0.00 0.10 0.00 96 1015.7
20260831071021 22 0 0.0 0.0 0.00 0.10 0.00 96 1015.6
20260831070524 22 0 0.0 0.0 0.00 0.10 0.00 96 1015.6
20260831070042 22 0 0.0 0.0 0.00 0.10 0.00 96 1015.7
20260831065536 22 0 0.0 0.0 0.00 0.10 0.00 96 1015.8
20260831065025 22 0 0.0 0.0 0.00 0.10 0.00 96 1015.7
20260831064545 22 0 0.0 0.0 0.00 0.10 0.00 96 1015.7
20260831064023 22 0 0.0 0.0 0.00 0.10 0.00 96 1015.8
20260831063523 22 0 0.0 0.0 0.00 0.10 0.00 96 1015.8
20260831063043 22 0 0.0 0.0 0.00 0.10 0.00 96 1016.0
20260831062523 22 0 0.0 0.0 0.00 0.10 0.00 96 1016.1
20260831062021 22 0 0.0 0.0 0.00 0.10 0.00 96 1016.2
20260831061543 22 0 0.0 0.0 0.00 0.10 0.00 96 1016.1
20260831061025 23 0 0.0 0.0 0.00 0.10 0.00 96 1016.1
20260831060525 23 0 0.0 0.0 0.00 0.10 0.00 96 1016.1
20260831060046 22 0 0.0 0.0 0.00 0.10 0.00 96 1016.2
20260831055524 22 0 0.0 0.0 0.00 0.10 0.00 96 1016.3
20260831055020 22 0 0.0 0.0 0.00 0.10 0.00 96 1016.4
20260831054543 23 0 0.0 0.0 0.00 0.10 0.00 96 1016.5
20260831054024 22 0 0.0 0.0 0.00 0.10 0.00 96 1016.5
20260831053524 22 0 0.0 0.0 0.00 0.10 0.00 96 1016.6
20260831053042 23 0 0.0 0.0 0.00 0.10 0.00 96 1016.5
20260831052525 23 0 0.0 0.0 0.00 0.10 0.00 96 1016.5
20260831052028 23 0 0.0 0.0 0.00 0.10 0.00 96 1016.6
20260831051544 23 0 0.0 0.0 0.00 0.10 0.00 96 1016.4
20260831051023 23 0 0.0 0.0 0.00 0.10 0.00 96 1016.5
20260831050524 23 0 0.0 0.0 0.00 0.10 0.00 96 1016.4
20260831050045 23 0 0.0 0.0 0.00 0.10 0.00 96 1016.5
20260831045523 23 0 0.0 0.0 0.00 0.10 0.00 96 1016.4
20260831045023 23 0 0.0 0.0 0.00 0.10 0.00 96 1016.5
20260831044602 23 0 0.0 0.0 0.00 0.10 0.00 96 1016.5
20260831044023 23 0 0.0 0.0 0.00 0.10 0.00 96 1016.5
20260831043518 23 0 0.0 0.0 0.00 0.10 0.00 96 1016.7
20260831043044 23 0 0.0 0.0 0.00 0.10 0.00 95 1016.7
20260831042525 23 0 0.0 0.0 0.00 0.10 0.00 95 1016.6
20260831042024 23 0 0.0 0.0 0.00 0.10 0.00 95 1016.7
20260831041556 23 0 0.0 0.0 0.00 0.10 0.00 95 1016.5
20260831041024 23 0 0.0 0.0 0.00 0.10 0.00 95 1016.5
20260831040523 23 0 0.0 0.0 0.00 0.10 0.00 95 1016.8
20260831040044 23 0 0.0 0.0 0.00 0.10 0.00 95 1016.8
20260831035520 23 0 0.0 0.0 0.00 0.10 0.10 95 1016.8
20260831035020 23 0 0.0 0.0 0.00 0.10 0.10 95 1016.7
20260831034541 23 0 0.0 0.0 0.00 0.10 0.10 95 1016.8
20260831034023 23 0 0.0 0.0 0.00 0.10 0.10 95 1016.7
20260831033525 23 0 0.0 0.0 0.00 0.10 0.10 95 1016.8
20260831033043 23 0 0.0 0.0 0.00 0.10 0.10 95 1016.8
20260831032523 23 0 0.0 0.0 0.00 0.10 0.10 95 1016.7
20260831032023 23 0 0.0 0.0 0.00 0.10 0.10 95 1016.9
20260831031541 23 0 0.0 0.0 0.00 0.10 0.10 95 1016.7
20260831031020 23 0 0.0 0.0 0.00 0.10 0.10 95 1016.7
20260831030521 23 0 0.0 0.0 0.00 0.10 0.10 95 1016.8
20260831030042 23 0 0.0 0.0 0.00 0.10 0.10 95 1016.8
20260831025525 23 0 0.0 0.0 0.00 0.10 0.10 95 1016.9
20260831025023 23 0 0.0 0.0 0.00 0.10 0.10 94 1016.9
20260831024548 23 0 0.0 0.0 0.00 0.10 0.10 94 1016.9
20260831024024 23 0 0.0 0.0 0.00 0.10 0.10 94 1017.0
20260831023522 23 0 0.0 0.0 0.00 0.10 0.10 94 1016.9
20260831023041 24 0 0.0 0.0 0.00 0.10 0.10 94 1016.9
20260831022519 23 0 0.0 0.0 0.00 0.10 0.10 94 1017.0
20260831022018 24 0 0.0 0.0 0.00 0.10 0.10 94 1016.8
20260831021542 24 0 0.0 0.0 0.00 0.10 0.10 94 1016.8
20260831021018 24 0 0.0 1.6 0.00 0.10 0.10 94 1016.9
20260831020520 24 0 0.0 1.6 0.00 0.10 0.10 94 1017.0
20260831020041 24 0 0.0 1.6 0.00 0.10 0.10 93 1017.0
20260831015520 24 0 0.0 1.6 0.00 0.10 0.10 93 1016.9
20260831015021 24 0 0.0 0.0 0.00 0.10 0.10 93 1016.8
20260831014542 24 0 0.0 0.0 0.00 0.10 0.10 93 1016.9
20260831014020 24 0 0.0 4.8 0.00 0.10 0.10 93 1016.8
20260831013525 24 0 0.0 4.8 0.00 0.10 0.10 92 1016.8
20260831013043 24 0 0.0 4.8 0.00 0.10 0.10 92 1016.7
20260831012525 24 269 0.0 0.0 0.00 0.10 0.10 92 1016.7
20260831012023 24 0 0.0 0.0 0.00 0.10 0.10 92 1016.7
20260831011542 24 0 0.0 3.2 0.00 0.10 0.10 92 1016.6
20260831011024 24 0 0.0 4.8 0.00 0.10 0.10 92 1016.8
20260831010526 25 0 1.6 4.8 0.00 0.10 0.10 92 1016.7
20260831010046 25 269 1.6 4.8 0.00 0.10 0.10 92 1016.8
20260831005520 25 269 1.6 4.8 0.00 0.10 0.10 92 1016.7
20260831005023 25 269 3.2 4.8 0.00 0.10 0.10 92 1016.8
20260831004543 25 269 1.6 4.8 0.00 0.10 0.10 91 1016.7
20260831004024 25 259 0.0 4.8 0.00 0.10 0.10 91 1016.6
20260831003526 25 0 0.0 1.6 0.00 0.10 0.10 90 1016.6
20260831003041 25 0 0.0 3.2 0.00 0.10 0.10 89 1016.6
20260831002525 25 0 0.0 3.2 0.00 0.10 0.10 89 1016.4
20260831002025 25 82 0.0 4.8 0.00 0.10 0.10 89 1016.3
20260831001545 25 0 0.0 4.8 0.00 0.10 0.10 88 1016.4
20260831001023 25 32 0.0 4.8 0.00 0.10 0.10 89 1016.2
20260831000523 25 281 1.6 6.4 0.00 0.10 0.10 89 1016.4
20260831000044 25 264 1.6 6.4 0.00 0.10 0.10 88 1016.3
20260830235521 25 246 1.6 8.0 0.00 0.10 0.10 87 1016.3
20260830235029 26 337 1.6 8.0 0.00 0.10 0.10 86 1016.4
20260830234556 26 40 4.8 8.0 0.00 0.10 0.10 87 1016.3
20260830234024 26 92 3.2 6.4 0.00 0.10 0.10 87 1016.3
20260830233528 25 108 0.0 4.8 0.00 0.10 0.10 88 1016.2
20260830233048 25 0 0.0 0.0 0.00 0.10 0.10 89 1016.3
20260830232526 25 0 0.0 0.0 0.00 0.10 0.10 88 1016.3
20260830232025 26 0 0.0 0.0 0.00 0.10 0.10 88 1016.3
20260830231544 26 0 0.0 0.0 0.00 0.10 0.10 88 1016.2
20260830231021 26 0 0.0 0.0 0.00 0.10 0.10 88 1016.2
20260830230519 26 0 0.0 0.0 0.00 0.10 0.10 88 1016.2
20260830230046 26 0 0.0 0.0 0.00 0.10 0.10 87 1016.2
20260830225522 26 0 0.0 3.2 0.00 0.10 0.10 86 1016.3
20260830225024 26 0 0.0 3.2 0.00 0.10 0.10 85 1016.3
20260830224542 26 108 0.0 3.2 0.00 0.10 0.10 85 1016.4
20260830224025 26 119 0.0 4.8 0.00 0.10 0.10 85 1016.4
20260830223524 26 121 1.6 6.4 0.00 0.10 0.10 85 1016.3
20260830223045 26 98 1.6 6.4 0.00 0.10 0.10 84 1016.3
20260830222523 27 88 3.2 6.4 0.00 0.10 0.10 83 1016.1
20260830222025 27 51 3.2 6.4 0.00 0.10 0.10 83 1016.1
20260830221542 27 67 3.2 6.4 0.00 0.10 0.10 83 1016.2
20260830221018 27 113 1.6 8.0 0.00 0.10 0.10 83 1016.2
20260830220520 27 87 3.2 12.9 0.00 0.10 0.10 81 1016.0
20260830220044 27 60 4.8 17.7 0.00 0.10 0.10 81 1015.8
20260830215523 27 105 8.0 19.3 0.00 0.10 0.10 79 1015.8
20260830215028 27 61 11.3 19.3 0.00 0.10 0.10 78 1015.7
20260830214603 27 88 8.0 19.3 0.00 0.10 0.10 78 1015.7
20260830214024 27 100 9.7 19.3 0.00 0.10 0.10 78 1015.8
20260830213523 28 46 8.0 20.9 0.00 0.10 0.10 79 1015.8
20260830213045 28 86 11.3 20.9 0.00 0.10 0.10 79 1015.7
20260830212520 28 104 8.0 17.7 0.00 0.10 0.10 78 1015.6
20260830212020 28 58 6.4 19.3 0.00 0.10 0.10 77 1015.7
20260830211547 29 95 3.2 19.3 0.00 0.10 0.10 78 1015.6
20260830211025 30 82 9.7 19.3 0.00 0.10 0.10 74 1015.4
20260830210525 30 63 11.3 19.3 0.00 0.10 0.10 72 1015.2
20260830210048 30 117 8.0 19.3 0.00 0.10 0.10 73 1015.1
20260830205525 30 111 6.4 19.3 0.00 0.10 0.10 77 1015.1
20260830205021 29 95 8.0 19.3 0.00 0.10 0.10 78 1015.1
20260830204543 30 88 11.3 19.3 0.00 0.10 0.10 77 1015.1
20260830204023 30 127 9.7 19.3 0.00 0.10 0.10 78 1015.1
20260830203519 29 92 11.3 24.1 0.00 0.10 0.10 79 1015.0
20260830203049 29 50 12.9 24.1 0.00 0.10 0.10 79 1014.9
20260830202521 29 45 16.1 29.0 0.00 0.10 0.10 79 1015.0
20260830202020 30 83 12.9 29.0 0.00 0.10 0.10 79 1015.0
20260830201544 29 103 16.1 29.0 0.00 0.10 0.10 80 1015.1
20260830201025 30 134 17.7 29.0 0.00 0.10 0.10 76 1015.4
20260830200524 31 77 11.3 20.9 0.00 0.10 0.10 73 1015.2
20260830200039 31 105 6.4 14.5 0.00 0.10 0.10 76 1015.2
20260830195525 31 136 6.4 16.1 0.03 0.10 0.10 76 1015.2
20260830195023 31 150 9.7 16.1 0.05 0.10 0.10 78 1015.2
20260830194544 31 53 4.8 9.7 0.10 0.10 0.10 73 1015.3
20260830194024 31 115 3.2 9.7 0.10 0.10 0.10 80 1015.4
20260830193519 31 107 0.0 8.0 0.10 0.10 0.10 80 1015.5
20260830193104 31 205 3.2 8.0 0.10 0.10 0.10 78 1015.5
20260830192526 31 163 0.0 8.0 0.10 0.10 0.10 80 1015.6
20260830192024 31 260 3.2 8.0 0.10 0.10 0.10 81 1015.6
20260830191549 31 109 1.6 6.4 0.10 0.10 0.10 81 1015.7
20260830191025 30 132 0.0 6.4 0.10 0.10 0.10 83 1015.7
20260830190521 28 0 0.0 3.2 0.10 0.10 0.10 87 1015.7
20260830190044 28 0 0.0 12.9 0.10 0.10 0.10 91 1015.9